Tracking 29892 objects as of 21-Nov-2024
HD Live streaming from Space Station
objects crossing your sky now

NOAA 16 DEB

Track NOAA 16 DEB now!
10-day predictions


NORAD ID: 41064
Int'l Code: 2000-055X
Perigee: 775.8 km
Apogee: 799.1 km
Inclination: 98.8 °
Period: 100.5 minutes
Semi major axis: 7158 km
RCS: Unknown
Launch date: September 21, 2000
Source: United States (US)
Launch site: AIR FORCE WESTERN TEST RANGE (AFWTR)

Note: This is SATELLITE DEBRIS
Your satellite tracking list
Your tracking list is empty




NASA's NSSDC Master Catalog

Two Line Element Set (TLE):
1 41064U 00055X   24325.75855649  .00014396  00000-0  52150-2 0  9998
2 41064  98.8376  73.3196 0016311 136.1641 224.0840 14.33418210465430
Source of the keplerian elements: AFSPC